This demonstration page uses our WeatherBlox Daily Observations layout. Learn more.

Left ArrowRight Arrow

Hourly Observations for January 30, 2019

Temp ( °F °C ) Dew Point ( °F °C ) Humidity (%) Winds ( mph kmh ) Pressure ( in mb ) Visibility ( mi km ) Precip ( " mm )
12:51 am 00:51 Clear 48 8.9 28 -2.2 46 46 E 8 13 29.89 1012 10 16 N/A
1:51 am 01:51 Clear 49 9.4 28 -2.2 44 44 E 6 9 29.88 1012 10 16 N/A
2:51 am 02:51 Mostly Cloudy 46 7.8 29 -1.7 51 51 N N/A 29.89 1012 10 16 N/A
3:51 am 03:51 Partly Cloudy 44 6.7 30 -1.1 58 58 NNW 3 6 29.90 1012 10 16 N/A
4:51 am 04:51 Partly Cloudy 43 6.1 29 -1.7 58 58 E 3 6 29.90 1013 10 16 N/A
5:51 am 05:51 Partly Cloudy 43 6.1 30 -1.1 60 60 N N/A 29.91 1013 10 16 N/A
8:51 am 08:51 Mostly Cloudy 50 10 28 -2.2 43 43 E 7 11 29.96 1015 10 16 N/A
9:51 am 09:51 Partly Cloudy 53 11.7 29 -1.7 40 40 SSE 9 15 29.98 1015 10 16 N/A
10:51 am 10:51 Cloudy 57 13.9 28 -2.2 33 33 E 10 17 29.96 1015 10 16 N/A
11:51 am 11:51 Cloudy 59 15 27 -2.8 29 29 SE 8 13 29.94 1014 10 16 N/A
12:51 pm 12:51 Mostly Cloudy 61 16.1 27 -2.8 27 27 SE 7 11 29.90 1013 10 16 N/A
1:51 pm 13:51 Mostly Sunny 63 17.2 26 -3.3 25 25 ESE 8 13 29.88 1012 10 16 N/A
2:51 pm 14:51 Sunny 64 17.8 26 -3.3 24 24 SSE 6 9 29.85 1011 10 16 N/A
3:51 pm 15:51 Sunny 64 17.8 26 -3.3 24 24 S 5 7 29.84 1011 10 16 N/A
4:51 pm 16:51 Mostly Cloudy 64 17.8 26 -3.3 24 24 N N/A 29.84 1011 10 16 N/A
5:51 pm 17:51 Cloudy 61 16.1 28 -2.2 29 29 WNW 7 11 29.85 1011 10 16 N/A
6:51 pm 18:51 Mostly Cloudy 58 14.4 29 -1.7 33 33 WNW 7 11 29.86 1011 10 16 N/A
7:51 pm 19:51 Mostly Cloudy 56 13.3 30 -1.1 37 37 NW 7 11 29.88 1012 10 16 N/A
8:51 pm 20:51 Cloudy 53 11.7 30 -1.1 41 41 WNW 5 7 29.88 1012 10 16 N/A
9:51 pm 21:51 Mostly Cloudy 50 10 30 -1.1 46 46 NW 5 7 29.88 1012 10 16 N/A
10:51 pm 22:51 Mostly Cloudy 51 10.6 30 -1.1 44 44 ESE 3 6 29.89 1012 10 16 N/A
11:51 pm 23:51 Mostly Cloudy 47 8.3 30 -1.1 52 52 ENE 3 6 29.90 1013 10 16 N/A

Powered by AerisWeather